Home   Weather   Haywards Heath   Past weeks

Flag for United Kingdom Past Weather in Haywards Heath, England, United Kingdom — Yesterday and Last 2 Weeks

Now
52 °F

Clear.


Feels Like: 51 °F
Forecast: 52 / 65 °F
Wind: 3 mph from Southeast

Location: London / Gatwick Airport

Current Time: Sep 26, 2016 at 9:48:08 PM

Latest Report: Sep 26, 2016 at 9:20 PM


Visibility: 10 mi

Pressure: 30.18 "Hg

Humidity: 94%

Dew Point: 50 °F

Location of Haywards HeathLocation

Past Weather in Haywards Heath — Graph

°F

Haywards Heath Temperature Yesterday

Maximum temperature yesterday: 66 °F (at 1:50 AM)
Minimum temperature yesterday: 52 °F (at 11:20 PM)
Average temperature yesterday: 61 °F

High & Low Weather Summary for the Past Weeks

 TemperatureHumidityPressure
High84 °F (Sep 13, 12:20 PM)100% (Sep 11, 10:50 PM)30.30 "Hg (Sep 11, 10:50 PM)
Low45 °F (Sep 23, 6:50 AM)46% (Sep 23, 2:50 PM)29.74 "Hg (Sep 14, 3:50 AM)
Average61 °F81%30.02 "Hg
* Reported Sep 11 8:20 PM — Sep 26 8:20 PM, Haywards Heath, Weather by CustomWeather, © 2016

Note: Actual official high and low records may vary slightly from our data, if they occured in-between our weather recording intervals... More about our weather records

Advertising

Haywards Heath Weather History for the Previous 24 Hours

Scroll right to see more
 ConditionsComfort  
Time TempWeatherWind HumidityBarometerVisibility
8:20 PM
Mon, Sep 26
54 °FClear.2 mph88%30.18 "Hg10 mi
7:50 PM55 °FClear.2 mph88%30.18 "Hg10 mi
7:20 PM59 °FClear.3 mph77%30.18 "Hg10 mi
6:50 PM59 °FPassing clouds.5 mph77%30.18 "HgN/A
6:20 PM61 °FPassing clouds.5 mph72%30.18 "HgN/A
5:50 PM61 °FScattered clouds.7 mph72%30.15 "HgN/A
5:20 PM63 °FScattered clouds.8 mph68%30.18 "HgN/A
4:50 PM63 °FScattered clouds.9 mph64%30.18 "HgN/A
4:20 PM63 °FScattered clouds.7 mph68%30.18 "HgN/A
3:50 PM64 °FScattered clouds.8 mph60%30.18 "HgN/A
3:20 PM63 °FBroken clouds.10 mph68%30.18 "HgN/A
2:50 PM64 °FScattered clouds.12 mph60%30.15 "HgN/A
2:20 PM63 °FPassing clouds.10 mph68%30.18 "HgN/A
1:50 PM63 °FPassing clouds.12 mph64%30.18 "HgN/A
1:20 PM63 °FScattered clouds.12 mph64%30.18 "HgN/A
12:50 PM63 °FScattered clouds.12 mph68%30.18 "HgN/A
12:20 PM63 °FScattered clouds.12 mph68%30.18 "HgN/A
11:50 AM63 °FPassing clouds.6 mph73%30.18 "HgN/A
11:20 AM61 °FPassing clouds.7 mph72%30.18 "HgN/A
10:50 AM61 °FScattered showers. Scattered clouds.6 mph72%30.18 "HgN/A
10:20 AM59 °FPassing clouds.6 mph77%30.18 "HgN/A
9:50 AM57 °FPassing clouds.3 mph88%30.18 "HgN/A
9:20 AM54 °FPassing clouds.No wind94%30.18 "HgN/A
8:50 AM52 °FPassing clouds.6 mph94%30.18 "HgN/A
8:20 AM52 °FScattered clouds.5 mph100%30.18 "HgN/A
7:50 AM54 °FPassing clouds.No wind94%30.18 "HgN/A
7:20 AM52 °FScattered clouds.No wind94%30.18 "HgN/A
6:50 AM54 °FPassing clouds.3 mph88%30.18 "HgN/A
6:20 AM54 °FPassing clouds.3 mph88%30.18 "HgN/A
5:50 AM54 °FPassing clouds.5 mph94%30.18 "HgN/A
5:20 AM52 °FPassing clouds.5 mph94%30.18 "HgN/A
4:50 AM50 °FSprinkles. Passing clouds.2 mph94%30.18 "HgN/A
4:20 AM48 °FPassing clouds.2 mph100%30.18 "HgN/A
3:50 AM48 °FPassing clouds.2 mph94%30.18 "HgN/A
3:20 AM50 °FPassing clouds.No wind94%30.18 "HgN/A
2:20 AM48 °FClear.No wind94%30.18 "Hg10 mi
1:50 AM48 °FClear.2 mph94%30.18 "Hg10 mi
1:20 AM52 °FClear.2 mph88%30.18 "Hg10 mi
12:50 AM52 °FClear.3 mph88%30.18 "Hg10 mi
12:20 AM50 °FClear.2 mph94%30.18 "Hg10 mi
11:50 PM
Sun, Sep 25
52 °FClear.2 mph88%30.18 "Hg10 mi
11:20 PM52 °FClear.3 mph88%30.15 "Hg10 mi
10:50 PM54 °FClear.5 mph82%30.15 "Hg10 mi
10:20 PM54 °FClear.5 mph82%30.15 "Hg10 mi
9:50 PM54 °FClear.6 mph82%30.15 "Hg10 mi
9:20 PM55 °FClear.5 mph77%30.15 "Hg10 mi
Weather by CustomWeather, © 2016

See weather overviewHow to use our weather pages